| time (UTC) | temp C | wind direction | speed KPH | gust KPH | rain 1hr cm | rain 24hr cm | rain mn cm | humidity % | barometer mb |
| 20260509000037 | 10 | 269 | 0.0 | 6.4 | 0.00 | 0.00 | 0.00 | 55 | 1012.8 |
| 20260508235134 | 10 | 301 | 0.0 | 6.4 | 0.00 | 0.00 | 0.00 | 56 | 1012.7 |
| 20260508234235 | 10 | 278 | 3.2 | 3.2 | 0.00 | 0.00 | 0.00 | 54 | 1012.6 |
| 20260508233334 | 10 | 287 | 1.6 | 3.2 | 0.00 | 0.00 | 0.00 | 55 | 1012.5 |
| 20260508232434 | 9 | 0 | 0.0 | 0.0 | 0.00 | 0.00 | 0.00 | 59 | 1012.6 |
| 20260508231534 | 10 | 292 | 0.0 | 3.2 | 0.00 | 0.00 | 0.00 | 57 | 1012.4 |
| 20260508230634 | 10 | 292 | 0.0 | 3.2 | 0.00 | 0.00 | 0.00 | 55 | 1012.3 |
| 20260508225734 | 11 | 292 | 0.0 | 3.2 | 0.00 | 0.00 | 0.00 | 53 | 1012.5 |
| 20260508224834 | 11 | 311 | 0.0 | 6.4 | 0.00 | 0.00 | 0.00 | 49 | 1012.3 |
| 20260508222135 | 12 | 297 | 1.6 | 6.4 | 0.00 | 0.00 | 0.00 | 48 | 1012.1 |
| 20260508221234 | 12 | 296 | 3.2 | 6.4 | 0.00 | 0.00 | 0.00 | 47 | 1012.0 |
| 20260508220334 | 12 | 302 | 3.2 | 6.4 | 0.00 | 0.00 | 0.00 | 46 | 1012.0 |
| 20260508215435 | 12 | 285 | 3.2 | 9.7 | 0.00 | 0.00 | 0.00 | 45 | 1011.9 |
| 20260508214534 | 12 | 271 | 3.2 | 6.4 | 0.00 | 0.00 | 0.00 | 43 | 1011.8 |
| 20260508213636 | 13 | 260 | 1.6 | 6.4 | 0.00 | 0.00 | 0.00 | 42 | 1011.6 |
| 20260508210935 | 14 | 273 | 4.8 | 12.9 | 0.00 | 0.00 | 0.00 | 37 | 1011.9 |
| 20260508204234 | 15 | 280 | 4.8 | 20.9 | 0.00 | 0.00 | 0.00 | 34 | 1011.2 |
| 20260508202434 | 16 | 260 | 6.4 | 20.9 | 0.00 | 0.00 | 0.00 | 32 | 1011.4 |
| 20260508200634 | 16 | 238 | 4.8 | 22.5 | 0.00 | 0.00 | 0.00 | 30 | 1011.2 |
| 20260508194834 | 16 | 249 | 6.4 | 20.9 | 0.00 | 0.00 | 0.00 | 30 | 1011.2 |
| 20260508193934 | 16 | 269 | 8.0 | 25.7 | 0.00 | 0.00 | 0.00 | 31 | 1011.1 |
| 20260508193035 | 16 | 265 | 12.9 | 32.2 | 0.00 | 0.00 | 0.00 | 29 | 1011.3 |
| 20260508192135 | 16 | 251 | 12.9 | 32.2 | 0.00 | 0.00 | 0.00 | 30 | 1011.3 |
| 20260508191234 | 16 | 261 | 12.9 | 33.8 | 0.00 | 0.00 | 0.00 | 29 | 1011.5 |
| 20260508190334 | 16 | 257 | 16.1 | 33.8 | 0.00 | 0.00 | 0.00 | 29 | 1011.3 |
| 20260508185434 | 16 | 263 | 16.1 | 33.8 | 0.00 | 0.00 | 0.00 | 31 | 1011.5 |
| 20260508183635 | 16 | 270 | 14.5 | 25.7 | 0.00 | 0.00 | 0.00 | 32 | 1011.7 |
| 20260508182735 | 16 | 250 | 8.0 | 29.0 | 0.00 | 0.00 | 0.00 | 32 | 1011.5 |
| 20260508181834 | 16 | 246 | 12.9 | 27.4 | 0.00 | 0.00 | 0.00 | 32 | 1011.9 |
| 20260508180936 | 16 | 254 | 4.8 | 27.4 | 0.00 | 0.00 | 0.00 | 32 | 1011.7 |
| 20260508180034 | 16 | 246 | 9.7 | 35.4 | 0.00 | 0.00 | 0.00 | 33 | 1012.0 |
| 20260508175134 | 15 | 261 | 19.3 | 37.0 | 0.00 | 0.00 | 0.00 | 33 | 1012.0 |
| 20260508174238 | 15 | 244 | 11.3 | 29.0 | 0.00 | 0.00 | 0.00 | 33 | 1012.0 |
| 20260508173334 | 15 | 246 | 12.9 | 32.2 | 0.00 | 0.03 | 0.00 | 32 | 1012.3 |
| 20260508172434 | 15 | 255 | 12.9 | 32.2 | 0.00 | 0.03 | 0.00 | 35 | 1012.2 |
| 20260508171534 | 15 | 241 | 3.2 | 27.4 | 0.00 | 0.03 | 0.00 | 36 | 1012.4 |
| 20260508165734 | 15 | 246 | 9.7 | 29.0 | 0.00 | 0.03 | 0.00 | 36 | 1012.9 |
| 20260508164834 | 14 | 252 | 17.7 | 29.0 | 0.00 | 0.03 | 0.00 | 36 | 1013.0 |
| 20260508163034 | 14 | 249 | 12.9 | 29.0 | 0.00 | 0.05 | 0.00 | 37 | 1013.0 |
| 20260508162134 | 14 | 246 | 12.9 | 25.7 | 0.00 | 0.05 | 0.00 | 38 | 1013.2 |
| 20260508161234 | 14 | 232 | 12.9 | 29.0 | 0.00 | 0.05 | 0.00 | 39 | 1013.2 |
| 20260508160334 | 13 | 241 | 14.5 | 29.0 | 0.00 | 0.05 | 0.00 | 39 | 1013.5 |
| 20260508155435 | 13 | 260 | 12.9 | 27.4 | 0.00 | 0.05 | 0.00 | 40 | 1013.8 |
| 20260508154534 | 13 | 248 | 8.0 | 29.0 | 0.00 | 0.05 | 0.00 | 41 | 1014.0 |
| 20260508153634 | 13 | 238 | 12.9 | 29.0 | 0.00 | 0.05 | 0.00 | 41 | 1014.3 |
| 20260508152734 | 13 | 225 | 17.7 | 29.0 | 0.00 | 0.10 | 0.00 | 42 | 1014.3 |
| 20260508151834 | 13 | 225 | 12.9 | 24.1 | 0.00 | 0.13 | 0.00 | 44 | 1014.5 |
| 20260508150936 | 13 | 242 | 9.7 | 22.5 | 0.00 | 0.13 | 0.00 | 44 | 1014.5 |
| 20260508150035 | 12 | 275 | 6.4 | 29.0 | 0.00 | 0.13 | 0.00 | 45 | 1014.9 |
| 20260508145134 | 13 | 254 | 11.3 | 24.1 | 0.00 | 0.13 | 0.00 | 45 | 1014.8 |
| 20260508144234 | 12 | 258 | 11.3 | 29.0 | 0.00 | 0.13 | 0.00 | 45 | 1014.9 |
| 20260508143335 | 12 | 252 | 9.7 | 24.1 | 0.00 | 0.13 | 0.00 | 46 | 1014.6 |
| 20260508142434 | 12 | 241 | 12.9 | 24.1 | 0.00 | 0.13 | 0.00 | 46 | 1014.8 |
| 20260508141534 | 12 | 235 | 8.0 | 25.7 | 0.00 | 0.13 | 0.00 | 46 | 1014.7 |
| 20260508140635 | 11 | 231 | 11.3 | 33.8 | 0.00 | 0.13 | 0.00 | 48 | 1015.0 |
| 20260508135734 | 11 | 222 | 6.4 | 33.8 | 0.00 | 0.13 | 0.00 | 48 | 1014.9 |
| 20260508134836 | 11 | 219 | 8.0 | 29.0 | 0.00 | 0.13 | 0.00 | 48 | 1014.8 |
| 20260508133934 | 11 | 222 | 11.3 | 37.0 | 0.00 | 0.13 | 0.00 | 48 | 1014.8 |
| 20260508133034 | 11 | 228 | 11.3 | 29.0 | 0.00 | 0.13 | 0.00 | 48 | 1014.8 |
| 20260508132135 | 11 | 222 | 12.9 | 29.0 | 0.00 | 0.13 | 0.00 | 48 | 1014.8 |
| 20260508131235 | 11 | 232 | 14.5 | 29.0 | 0.00 | 0.13 | 0.00 | 49 | 1014.8 |
| 20260508130334 | 11 | 248 | 8.0 | 27.4 | 0.00 | 0.13 | 0.00 | 51 | 1014.5 |
| 20260508125434 | 10 | 259 | 12.9 | 32.2 | 0.00 | 0.13 | 0.00 | 52 | 1014.5 |
| 20260508124534 | 10 | 253 | 9.7 | 24.1 | 0.00 | 0.13 | 0.00 | 52 | 1014.6 |
| 20260508123634 | 10 | 227 | 11.3 | 25.7 | 0.00 | 0.13 | 0.00 | 52 | 1014.6 |
| 20260508122734 | 10 | 244 | 12.9 | 25.7 | 0.00 | 0.13 | 0.00 | 53 | 1014.5 |
| 20260508120934 | 9 | 254 | 8.0 | 24.1 | 0.00 | 0.13 | 0.00 | 58 | 1014.5 |
| 20260508115134 | 8 | 258 | 6.4 | 17.7 | 0.00 | 0.13 | 0.00 | 62 | 1014.3 |
| 20260508114234 | 8 | 257 | 9.7 | 17.7 | 0.00 | 0.13 | 0.00 | 64 | 1014.3 |
| 20260508113335 | 7 | 274 | 6.4 | 17.7 | 0.00 | 0.13 | 0.00 | 65 | 1013.9 |
| 20260508112435 | 7 | 284 | 8.0 | 14.5 | 0.00 | 0.13 | 0.00 | 67 | 1013.9 |
| 20260508111534 | 7 | 284 | 6.4 | 17.7 | 0.00 | 0.13 | 0.00 | 68 | 1013.9 |
| 20260508110634 | 7 | 272 | 3.2 | 17.7 | 0.00 | 0.13 | 0.00 | 67 | 1013.6 |
| 20260508105735 | 7 | 289 | 6.4 | 17.7 | 0.00 | 0.13 | 0.00 | 66 | 1013.6 |
| 20260508104834 | 7 | 282 | 4.8 | 11.3 | 0.00 | 0.13 | 0.00 | 65 | 1013.1 |
| 20260508103934 | 7 | 266 | 3.2 | 12.9 | 0.00 | 0.13 | 0.00 | 63 | 1013.1 |
| 20260508103034 | 7 | 254 | 4.8 | 14.5 | 0.00 | 0.13 | 0.00 | 62 | 1013.0 |
| 20260508102134 | 7 | 250 | 8.0 | 12.9 | 0.00 | 0.13 | 0.00 | 62 | 1012.7 |
| 20260508101235 | 8 | 244 | 3.2 | 20.9 | 0.00 | 0.13 | 0.00 | 61 | 1012.6 |
| 20260508100334 | 8 | 234 | 8.0 | 20.9 | 0.00 | 0.13 | 0.00 | 59 | 1012.3 |
| 20260508095434 | 8 | 225 | 9.7 | 20.9 | 0.00 | 0.13 | 0.00 | 58 | 1012.4 |
| 20260508094534 | 8 | 224 | 8.0 | 27.4 | 0.00 | 0.13 | 0.00 | 60 | 1012.2 |
| 20260508093634 | 8 | 223 | 16.1 | 27.4 | 0.00 | 0.13 | 0.00 | 60 | 1012.0 |
| 20260508092734 | 7 | 246 | 3.2 | 22.5 | 0.00 | 0.13 | 0.00 | 67 | 1011.9 |
| 20260508090934 | 7 | 264 | 3.2 | 14.5 | 0.00 | 0.13 | 0.00 | 71 | 1011.7 |
| 20260508090034 | 7 | 251 | 3.2 | 14.5 | 0.00 | 0.15 | 0.00 | 72 | 1011.4 |
| 20260508084234 | 7 | 254 | 4.8 | 9.7 | 0.00 | 0.18 | 0.00 | 72 | 1011.1 |
| 20260508083334 | 7 | 231 | 6.4 | 17.7 | 0.00 | 0.18 | 0.00 | 71 | 1011.1 |
| 20260508082434 | 7 | 222 | 6.4 | 17.7 | 0.00 | 0.18 | 0.00 | 70 | 1011.3 |
| 20260508080634 | 7 | 230 | 9.7 | 27.4 | 0.00 | 0.18 | 0.00 | 68 | 1010.8 |
| 20260508075735 | 8 | 237 | 9.7 | 22.5 | 0.00 | 0.18 | 0.00 | 68 | 1010.8 |
| 20260508074834 | 7 | 237 | 6.4 | 14.5 | 0.00 | 0.18 | 0.00 | 70 | 1010.8 |
| 20260508073934 | 7 | 224 | 4.8 | 17.7 | 0.00 | 0.18 | 0.00 | 69 | 1010.9 |
| 20260508073035 | 8 | 225 | 11.3 | 17.7 | 0.00 | 0.18 | 0.00 | 69 | 1010.7 |
| 20260508072134 | 8 | 237 | 6.4 | 17.7 | 0.00 | 0.18 | 0.00 | 69 | 1010.7 |
| 20260508071234 | 8 | 232 | 12.9 | 20.9 | 0.00 | 0.18 | 0.00 | 68 | 1010.7 |
| 20260508070334 | 8 | 224 | 6.4 | 22.5 | 0.00 | 0.18 | 0.00 | 68 | 1010.8 |
| 20260508064534 | 7 | 242 | 6.4 | 17.7 | 0.00 | 0.18 | 0.00 | 72 | 1010.5 |
| 20260508063634 | 8 | 248 | 6.4 | 17.7 | 0.00 | 0.18 | 0.00 | 72 | 1010.4 |
| 20260508062735 | 8 | 232 | 6.4 | 14.5 | 0.00 | 0.18 | 0.00 | 72 | 1010.6 |
| 20260508061834 | 8 | 239 | 8.0 | 14.5 | 0.00 | 0.18 | 0.00 | 70 | 1010.7 |
| 20260508060935 | 8 | 240 | 6.4 | 12.9 | 0.00 | 0.18 | 0.00 | 71 | 1010.7 |
| 20260508060034 | 8 | 263 | 3.2 | 14.5 | 0.00 | 0.18 | 0.00 | 71 | 1010.5 |
| 20260508055134 | 8 | 276 | 6.4 | 12.9 | 0.00 | 0.18 | 0.00 | 73 | 1010.8 |
| 20260508054234 | 8 | 255 | 4.8 | 12.9 | 0.00 | 0.18 | 0.00 | 72 | 1010.9 |
| 20260508053335 | 8 | 272 | 4.8 | 11.3 | 0.00 | 0.18 | 0.00 | 73 | 1011.1 |
| 20260508052435 | 8 | 271 | 3.2 | 9.7 | 0.00 | 0.18 | 0.00 | 74 | 1011.0 |
| 20260508051533 | 8 | 285 | 4.8 | 9.7 | 0.00 | 0.18 | 0.00 | 75 | 1011.4 |
| 20260508050634 | 8 | 266 | 4.8 | 11.3 | 0.00 | 0.18 | 0.00 | 73 | 1011.2 |
| 20260508045734 | 8 | 283 | 3.2 | 9.7 | 0.00 | 0.18 | 0.00 | 74 | 1011.3 |
| 20260508044834 | 8 | 271 | 6.4 | 12.9 | 0.00 | 0.18 | 0.00 | 74 | 1011.3 |
| 20260508043936 | 8 | 268 | 4.8 | 9.7 | 0.00 | 0.18 | 0.00 | 74 | 1011.3 |
| 20260508043034 | 8 | 286 | 4.8 | 9.7 | 0.00 | 0.18 | 0.00 | 73 | 1011.3 |
| 20260508042135 | 8 | 294 | 3.2 | 11.3 | 0.00 | 0.18 | 0.00 | 73 | 1011.2 |
| 20260508041233 | 8 | 295 | 4.8 | 11.3 | 0.00 | 0.18 | 0.00 | 75 | 1011.0 |
| 20260508035434 | 9 | 298 | 4.8 | 11.3 | 0.00 | 0.18 | 0.00 | 73 | 1010.6 |
| 20260508034533 | 9 | 288 | 6.4 | 9.7 | 0.00 | 0.18 | 0.00 | 71 | 1010.5 |
| 20260508032733 | 10 | 252 | 4.8 | 9.7 | 0.00 | 0.18 | 0.00 | 68 | 1010.3 |
| 20260508031834 | 10 | 259 | 3.2 | 6.4 | 0.00 | 0.18 | 0.00 | 68 | 1010.1 |
| 20260508030935 | 10 | 270 | 3.2 | 9.7 | 0.00 | 0.18 | 0.00 | 70 | 1010.2 |
| 20260508030033 | 10 | 287 | 4.8 | 11.3 | 0.00 | 0.18 | 0.00 | 69 | 1010.3 |
| 20260508024235 | 11 | 235 | 6.4 | 11.3 | 0.00 | 0.18 | 0.18 | 65 | 1010.3 |
| 20260508023333 | 11 | 234 | 3.2 | 11.3 | 0.00 | 0.18 | 0.18 | 66 | 1010.3 |
| 20260508022434 | 11 | 258 | 4.8 | 14.5 | 0.00 | 0.18 | 0.18 | 65 | 1010.5 |
| 20260508021534 | 11 | 256 | 3.2 | 12.9 | 0.00 | 0.18 | 0.18 | 66 | 1010.7 |
| 20260508020633 | 11 | 254 | 6.4 | 12.9 | 0.00 | 0.18 | 0.18 | 65 | 1010.5 |
| 20260508015733 | 11 | 266 | 6.4 | 17.7 | 0.00 | 0.18 | 0.18 | 67 | 1010.5 |
| 20260508014835 | 11 | 249 | 3.2 | 12.9 | 0.00 | 0.18 | 0.18 | 68 | 1010.3 |
| 20260508013934 | 11 | 269 | 4.8 | 12.9 | 0.00 | 0.18 | 0.18 | 71 | 1010.3 |
| 20260508013035 | 11 | 270 | 4.8 | 12.9 | 0.00 | 0.18 | 0.18 | 72 | 1010.3 |
| 20260508012133 | 11 | 277 | 3.2 | 11.3 | 0.00 | 0.18 | 0.18 | 74 | 1009.9 |
| 20260508011234 | 11 | 270 | 4.8 | 14.5 | 0.00 | 0.18 | 0.18 | 74 | 1010.1 |
| 20260508010334 | 11 | 271 | 6.4 | 14.5 | 0.00 | 0.18 | 0.18 | 74 | 1009.9 |
| 20260508005434 | 11 | 286 | 4.8 | 14.5 | 0.00 | 0.18 | 0.18 | 75 | 1010.0 |
| 20260508004533 | 11 | 278 | 6.4 | 14.5 | 0.00 | 0.18 | 0.18 | 76 | 1009.9 |
| 20260508003634 | 11 | 271 | 6.4 | 12.9 | 0.00 | 0.18 | 0.18 | 77 | 1009.6 |
| 20260508002734 | 11 | 289 | 4.8 | 11.3 | 0.00 | 0.18 | 0.18 | 78 | 1009.7 |
| 20260508001835 | 11 | 290 | 4.8 | 9.7 | 0.00 | 0.18 | 0.18 | 79 | 1009.4 |
| 20260508000933 | 11 | 280 | 3.2 | 9.7 | 0.00 | 0.18 | 0.18 | 78 | 1009.6 |